Regional Weather Roundup
Issued by NWS

Home | Current Version | Previous Version | Text Only | Print | Product List | Glossary Off
Versions: 1 2 3 4 5 6 7 8 9 10 11 12 13 14 15 16 17 18 19 20 21 22 23 24 25 26 27 28 29 30 31 32 33 34 35 36 37 38 39 40 41 42 43 44 45 46 47 48 49 50

000
ASUS43 KBIS 270110
RWRND
NORTH DAKOTA REGIONAL WEATHER ROUNDUP
NATIONAL WEATHER SERVICE EASTERN NORTH DAKOTA/GRAND FORKS ND
800 PM CDT THU APR 26 2018

  NOTE: "FAIR" INDICATES FEW OR NO CLOUDS BELOW 12,000 FEET WITH NO
  SIGNIFICANT WEATHER AND/OR OBSTRUCTIONS TO VISIBILITY.

NDZ001>003-009>011-017-270200-
...NORTHWEST NORTH DAKOTA...

CITY           SKY/WX    TMP DP  RH WIND       PRES   REMARKS
WILLISTON      FAIR      69  30  23 W15       29.95F
MINOT          FAIR      68  24  19 W20G28    29.88F
MINOT AFB      FAIR      67  27  22 NW20      29.86F
$$

NDZ018>021-031>035-040>046-270200-
...SOUTHWEST NORTH DAKOTA...

CITY           SKY/WX    TMP DP  RH WIND       PRES   REMARKS
BISMARCK       FAIR      66  27  23 W14G23    29.96F
DICKINSON      FAIR      63  27  25 NW18      29.99F
GARRISON         N/A     63  28  26 W20       29.92F
HETTINGER      FAIR      61  26  26 NW16      30.05F
$$

NDZ004>008-012>016-024-026-027-054-270200-
...NORTHEAST NORTH DAKOTA...

CITY           SKY/WX    TMP DP  RH WIND       PRES   REMARKS
GRAND FORKS    FAIR      53  37  54 S9        29.86F
GRAND FORKS AF FAIR      56  33  41 S7        29.86F
DEVILS LAKE    CLOUDY    57  30  35 SW6       29.86F
$$

NDZ022-023-025-028>030-036>039-047>053-270200-
...SOUTHEAST NORTH DAKOTA...

CITY           SKY/WX    TMP DP  RH WIND       PRES   REMARKS
JAMESTOWN      FAIR      62  26  25 W13       29.92F
FARGO          MOCLDY    55  30  38 W7        29.93F
WAHPETON       FAIR      55  28  35 N6        29.98F
$$




USA.gov is the U.S. government's official web portal to all federal, state and local government web resources and services.